TimeCST,TemperatureF,Dew PointF,Humidity,Sea Level PressureIn,VisibilityMPH,Wind Direction,Wind SpeedMPH,Gust SpeedMPH,PrecipitationIn,Events,Conditions,WindDirDegrees,DateUTC
12:15 AM,6.8,-0.4,72,30.11,10.0,WNW,9.2,-,N/A,,Clear,300,2013-02-20 06:15:00
12:55 AM,6.8,-0.4,72,30.12,10.0,WNW,8.1,-,N/A,,Clear,300,2013-02-20 06:55:00
1:15 AM,6.8,-0.4,72,30.13,10.0,WNW,9.2,-,N/A,,Clear,290,2013-02-20 07:15:00
1:35 AM,6.8,-0.4,72,30.13,10.0,WNW,10.4,-,N/A,,Clear,300,2013-02-20 07:35:00
1:55 AM,6.8,-0.4,72,30.13,10.0,WNW,8.1,-,N/A,,Clear,300,2013-02-20 07:55:00
2:15 AM,6.8,-0.4,72,30.14,10.0,WNW,9.2,-,N/A,,Clear,290,2013-02-20 08:15:00
2:35 AM,6.8,-0.4,72,30.15,10.0,West,9.2,-,N/A,,Clear,280,2013-02-20 08:35:00
2:55 AM,6.8,-0.4,72,30.16,10.0,West,8.1,-,N/A,,Clear,280,2013-02-20 08:55:00
3:15 AM,6.8,-0.4,72,30.16,10.0,West,6.9,-,N/A,,Clear,280,2013-02-20 09:15:00
3:35 AM,5.0,-0.4,78,30.17,10.0,West,6.9,-,N/A,,Clear,280,2013-02-20 09:35:00
3:55 AM,5.0,-0.4,78,30.19,10.0,West,8.1,-,N/A,,Clear,270,2013-02-20 09:55:00
4:15 AM,5.0,-0.4,78,30.19,10.0,West,9.2,-,N/A,,Clear,280,2013-02-20 10:15:00
4:35 AM,5.0,-0.4,78,30.20,10.0,West,8.1,-,N/A,,Clear,280,2013-02-20 10:35:00
4:55 AM,5.0,1.4,85,30.21,10.0,West,8.1,-,N/A,,Clear,280,2013-02-20 10:55:00
5:15 AM,5.0,1.4,85,30.22,10.0,WNW,11.5,-,N/A,,Clear,300,2013-02-20 11:15:00
5:35 AM,6.8,1.4,79,30.22,10.0,WNW,9.2,-,N/A,,Clear,300,2013-02-20 11:35:00
5:55 AM,5.0,1.4,85,30.23,10.0,WNW,6.9,-,N/A,,Clear,300,2013-02-20 11:55:00
6:15 AM,5.0,-0.4,78,30.23,10.0,NW,5.8,-,N/A,,Clear,310,2013-02-20 12:15:00
6:35 AM,5.0,1.4,85,30.24,10.0,West,5.8,-,N/A,,Clear,270,2013-02-20 12:35:00
7:15 AM,5.0,1.4,85,30.25,10.0,NW,5.8,-,N/A,,Clear,310,2013-02-20 13:15:00
7:35 AM,6.8,1.4,79,30.26,3.0,WNW,4.6,-,N/A,,Haze,290,2013-02-20 13:35:00
7:55 AM,8.6,1.4,73,30.26,10.0,WNW,5.8,-,N/A,,Clear,300,2013-02-20 13:55:00
8:15 AM,8.6,3.2,79,30.26,10.0,WNW,4.6,-,N/A,,Clear,300,2013-02-20 14:15:00
8:35 AM,12.2,3.2,67,30.26,10.0,NNW,5.8,-,N/A,,Clear,330,2013-02-20 14:35:00
8:55 AM,14.0,5.0,67,30.26,10.0,NNW,8.1,-,N/A,,Clear,340,2013-02-20 14:55:00
9:15 AM,15.8,5.0,62,30.26,10.0,North,8.1,-,N/A,,Clear,350,2013-02-20 15:15:00
9:35 AM,17.6,5.0,58,30.26,10.0,North,10.4,16.1,N/A,,Clear,350,2013-02-20 15:35:00
9:55 AM,17.6,5.0,58,30.26,10.0,North,10.4,-,N/A,,Clear,360,2013-02-20 15:55:00
10:15 AM,19.4,5.0,54,30.27,10.0,North,9.2,-,N/A,,Clear,350,2013-02-20 16:15:00
10:35 AM,19.4,5.0,54,30.27,10.0,NNW,9.2,-,N/A,,Clear,330,2013-02-20 16:35:00
11:15 AM,21.2,6.8,54,30.27,10.0,North,13.8,18.4,N/A,,Clear,10,2013-02-20 17:15:00
11:35 AM,23.0,6.8,50,30.27,10.0,North,9.2,-,N/A,,Clear,350,2013-02-20 17:35:00
11:55 AM,23.0,6.8,50,30.27,10.0,North,15.0,18.4,N/A,,Clear,360,2013-02-20 17:55:00
12:15 PM,24.8,6.8,46,30.28,10.0,North,9.2,16.1,N/A,,Clear,350,2013-02-20 18:15:00
12:35 PM,24.8,8.6,50,30.27,10.0,NNW,6.9,-,N/A,,Clear,330,2013-02-20 18:35:00
12:55 PM,26.6,8.6,47,30.27,10.0,NNW,10.4,-,N/A,,Clear,330,2013-02-20 18:55:00
1:15 PM,26.6,8.6,47,30.26,10.0,North,10.4,-,N/A,,Clear,10,2013-02-20 19:15:00
1:35 PM,26.6,8.6,47,30.26,10.0,North,9.2,16.1,N/A,,Clear,350,2013-02-20 19:35:00
1:55 PM,26.6,8.6,47,30.26,10.0,North,9.2,16.1,N/A,,Clear,350,2013-02-20 19:55:00
2:15 PM,28.4,8.6,43,30.28,10.0,North,8.1,-,N/A,,Clear,350,2013-02-20 20:15:00
2:35 PM,26.6,8.6,47,30.29,10.0,NNW,9.2,-,N/A,,Clear,340,2013-02-20 20:35:00
2:55 PM,26.6,8.6,47,30.30,10.0,NW,6.9,-,N/A,,Clear,310,2013-02-20 20:55:00
3:15 PM,26.6,8.6,47,30.30,10.0,NW,12.7,16.1,N/A,,Clear,310,2013-02-20 21:15:00
3:35 PM,26.6,8.6,47,30.31,10.0,NW,11.5,-,N/A,,Clear,310,2013-02-20 21:35:00
3:55 PM,26.6,8.6,47,30.31,10.0,NW,15.0,-,N/A,,Clear,320,2013-02-20 21:55:00
4:15 PM,26.6,8.6,47,30.31,10.0,NW,11.5,-,N/A,,Clear,310,2013-02-20 22:15:00
4:35 PM,26.6,8.6,47,30.32,10.0,NW,10.4,-,N/A,,Clear,310,2013-02-20 22:35:00
4:55 PM,24.8,8.6,50,30.33,10.0,NW,11.5,-,N/A,,Clear,310,2013-02-20 22:55:00
5:15 PM,24.8,8.6,50,30.33,10.0,NNW,8.1,-,N/A,,Clear,330,2013-02-20 23:15:00
5:35 PM,23.0,8.6,54,30.33,10.0,NNW,5.8,-,N/A,,Clear,340,2013-02-20 23:35:00
5:55 PM,23.0,8.6,54,30.33,10.0,NNW,6.9,-,N/A,,Clear,340,2013-02-20 23:55:00
6:15 PM,23.0,8.6,54,30.34,10.0,NW,5.8,-,N/A,,Clear,320,2013-02-21 00:15:00
6:35 PM,21.2,8.6,58,30.34,10.0,NNW,6.9,-,N/A,,Clear,330,2013-02-21 00:35:00
7:15 PM,21.2,8.6,58,30.35,10.0,North,4.6,-,N/A,,Clear,350,2013-02-21 01:15:00
7:35 PM,19.4,8.6,63,30.34,10.0,North,6.9,-,N/A,,Clear,360,2013-02-21 01:35:00
7:55 PM,19.4,8.6,63,30.34,10.0,North,6.9,-,N/A,,Clear,360,2013-02-21 01:55:00
8:15 PM,19.4,6.8,58,30.34,10.0,North,6.9,-,N/A,,Clear,10,2013-02-21 02:15:00
8:35 PM,17.6,6.8,63,30.34,10.0,North,6.9,-,N/A,,Clear,10,2013-02-21 02:35:00
8:55 PM,17.6,6.8,63,30.34,10.0,North,8.1,-,N/A,,Clear,10,2013-02-21 02:55:00
9:15 PM,17.6,6.8,63,30.34,10.0,NNE,6.9,-,N/A,,Clear,20,2013-02-21 03:15:00
9:35 PM,15.8,6.8,68,30.35,10.0,North,8.1,-,N/A,,Clear,10,2013-02-21 03:35:00
9:55 PM,15.8,6.8,68,30.36,10.0,NNE,10.4,-,N/A,,Clear,20,2013-02-21 03:55:00
10:15 PM,14.0,6.8,73,30.36,10.0,NNE,10.4,-,N/A,,Clear,20,2013-02-21 04:15:00
10:35 PM,14.0,5.0,67,30.37,10.0,NNE,9.2,-,N/A,,Clear,30,2013-02-21 04:35:00
10:55 PM,12.2,5.0,73,30.36,10.0,NE,8.1,-,N/A,,Clear,40,2013-02-21 04:55:00
11:15 PM,12.2,5.0,73,30.37,10.0,NNE,5.8,-,N/A,,Clear,30,2013-02-21 05:15:00
11:35 PM,12.2,5.0,73,30.38,10.0,NNE,3.5,-,N/A,,Clear,30,2013-02-21 05:35:00
11:55 PM,12.2,5.0,73,30.38,10.0,Calm,Calm,-,N/A,,Clear,0,2013-02-21 05:55:00